Terminal Aerodrome Forecast
Issued by NWS Brownsville, TX

Home | Current Version | Previous Version | Text Only | Print | Product List | Glossary On
Versions: 1 2 3 4 5 6 7 8 9 10 11 12 13
000
FTUS44 KBRO 030524
TAFMFE
TAF
KMFE 030524Z 0306/0406 15005KT P6SM FEW030 SCT150
     FM031700 17012G18KT P6SM SCT035 SCT150
     FM040000 14008KT P6SM SKC=

USA.gov is the U.S. government's official web portal to all federal, state and local government web resources and services.